COSMOS 2528 DEB, 45037

Orbit data source: Space-Track

COSMOS 2528 DEB, 45037 is space debris in LEO originally from a launch on Thu, 25 Oct 2018 UTC launched from the Plesetsk Missile And Space Complex (PKMTR). Debris objects in space refer to the collection of defunct objects orbiting the Earth. Examples of debris include non-operational satellites, rocket bodies, and fragments generated from explosions, collisions, or faulty payload assembly.

Loading next visibility...
Identifier
45037, 2018-082C
Orbit
LEO
Country
Flag of CISCIS
Related business
Manufacturer
Arsenal
Mission
Spacecraft
Bus & Motor
Unknown
Mass
Unknown
Launch date (UTC)
2018-10-25 (8 years ago)
Launch vehicle
Unknown
Launch site
Plesetsk Missile And Space Complex (PKMTR)
Object type
Payload
Rocket body
Debris
Shape & HBR
Unknown shape, 1.2 m
Radar Cross Section
Large (>1 m²)

Expand to show TLE details & history
Last TLE update: 2 days ago

TLE from 2 days ago
0 COSMOS 2528 DEB
1 45037U 18082C   26171.15894117  .00000729  00000-0  55055-3 0  9992
2 45037  67.2277  93.5496 0013142 327.4966  32.5310 13.99510677327156
Epoch: 2026-06-20T03:48Z
TLE epoch observation values (Epoch: 2026-06-20T03:48:52.517Z)
Latitude
-0.00001°
Longitude
127.9532°
Altitude
889.551 km
Speed
7.412 km/s
True Right ascension
06h 14m 11s
True Declination
0° 00' 00"
Sunlit
Object was in daylight at epoch
Visualization orbit readout
Latitude
Unknown
Longitude
Unknown
Altitude
Unknown
Speed
Unknown
Apparent Right ascension
Unknown
Apparent Declination
Unknown
Sunlit
N/A
Visualization observer readout
Local Sidereal Time
21:30:34
Azimuth
Unknown
Elevation
Unknown
Doppler factor
Unknown
Orbital elements
Apogee altitude
903.385 km
Perigee altitude
884.271 km
Semi-major axis
7,271.965 km
Eccentricity
0.00131
Inclination
67.2277°
RAAN
93.5496°
Arg. of periapsis
327.4966°
True anomaly
32.6121°
Mean anomaly
32.531°
Eccentric anomaly
32.57154°
Mean motion
3.49998 °/min
Orbital period
102.86 mins
BSTAR
0.00055055
Loading maneuver chart data...
Computing Atmospheric mass density...
Loading historical data...
Loading historical data...
Loading historical data...
Loading historical data...
Loading historical data...
Loading historical data...
Loading historical data...
Other satellites on launch #82 in the year 2018 (2018-10-25 UTC)

Documentation

Showing up to 5 results
|